Theta_e
314 314 314 313 311 309 313 318 312 329 330 314 314 310 313 310 316 319 314 313 312 311 312 312 311 309 312 316 315 310 314 309 304 307 313 313 310 308 308 303 303 306 305 306
315 314 314 313 311 309 312 312 312 320 324 308 308 313 313 316 315 314 313 311 313 314 312 309 312 313 317 316 314 311 313 307 302 304 309 312 308 309 310 309 308 306 303 305
316 316 315 314 313 311 312 312 307 316 319 319 313 310 310 311 318 315 315 313 314 312 311 313 311 312 316 316 315 322 315 309 306 301 306 310 306 307 309 308 305 304 305 311
316 316 316 315 314 313 312 314 309 313 308 312 312 312 314 311 310 315 317 313 312 312 310 311 310 313 314 316 319 314 311 305 307 308 309 309 309 308 308 306 307 304 308 309
316 316 316 315 314 312 312 308 308 312 309 312 310 307 308 308 309 310 311 311 314 313 311 312 310 313 313 312 315 311 311 306 307 304 308 308 306 308 309 309 308 308 309 308
316 317 317 316 314 312 314 316 318 313 307 307 305 304 306 308 311 312 314 313 313 311 314 318 318 319 318 317 314 313 310 308 306 301 306 306 302 307 308 309 311 310 306 312
316 316 317 316 315 313 315 314 314 308 304 306 306 307 308 306 308 309 313 315 313 317 322 321 320 318 317 317 315 316 312 314 309 304 306 296 307 313 312 310 311 312 312 314
316 316 316 317 315 314 315 316 313 309 304 308 307 306 307 309 311 310 311 314 317 321 317 311 309 309 311 313 314 314 315 310 305 303 302 305 308 311 311 309 310 315 314 317
315 315 316 316 315 313 315 314 315 310 305 305 310 308 308 306 307 308 310 314 318 316 311 308 302 299 303 303 307 314 313 314 308 304 299 298 309 314 317 316 307 320 318 318
315 315 315 316 316 314 314 314 315 309 303 309 309 307 307 310 310 307 310 312 311 314 307 302 300 300 305 300 302 304 307 310 304 305 301 304 312 315 317 304 310 321 318 319
315 314 315 315 316 316 315 313 316 308 304 308 310 312 309 310 308 304 309 309 310 308 303 302 302 302 303 303 307 306 305 303 304 307 302 299 315 313 307 323 326 325 322 323
314 314 315 315 316 316 314 308 315 315 306 306 312 314 316 314 314 310 311 310 311 313 308 308 307 303 305 305 299 310 303 306 307 307 306 318 318 319 324 321 323 326 328 328
314 314 314 315 315 315 314 311 314 310 304 304 308 309 316 318 316 317 307 310 313 314 319 311 308 304 308 301 303 305 310 312 307 308 312 315 317 318 321 323 322 325 325 334
314 313 313 314 314 314 314 311 316 310 305 297 304 314 312 318 319 317 314 313 313 314 314 311 307 302 310 305 306 306 309 312 308 307 312 313 316 318 319 317 321 324 327 327
313 313 313 313 313 314 316 316 315 315 305 298 301 309 314 316 315 315 315 312 311 308 308 308 304 307 307 307 307 303 308 306 306 304 315 313 315 318 319 319 319 322 324 325
313 312 312 312 313 314 314 307 315 316 312 301 295 310 310 312 313 314 312 312 312 312 309 306 308 311 307 302 301 308 310 314 316 312 315 315 316 316 319 318 320 318 325 334
312 311 311 311 311 315 311 309 314 315 314 302 297 301 309 314 312 310 310 311 313 313 311 307 306 307 309 303 300 307 310 313 315 316 315 313 316 314 318 317 317 315 327 335
312 311 310 311 312 311 312 315 314 317 309 305 297 301 304 313 309 306 312 311 313 311 309 309 307 308 310 301 306 309 311 312 314 316 315 314 316 318 319 319 317 312 325 327
311 310 311 314 313 315 315 316 315 318 310 300 300 297 296 310 307 310 309 308 299 308 303 305 308 302 300 304 307 309 310 312 315 317 316 317 315 315 317 316 316 310 321 325
310 311 311 310 314 316 316 311 306 305 305 303 298 305 299 306 302 301 301 304 299 295 301 308 302 301 307 310 310 313 315 314 316 312 312 313 314 315 316 317 316 321 324 325
316 314 313 317 316 315 310 303 300 301 298 302 304 306 304 308 298 298 302 299 299 292 298 299 297 296 306 313 314 313 314 316 316 317 316 316 316 319 319 315 320 322 324 323
309 310 313 316 311 306 302 302 306 302 300 308 307 309 309 309 306 299 300 296 297 291 302 296 292 303 308 311 312 314 314 314 314 315 317 317 318 321 318 316 316 319 322 325
317 310 307 306 307 296 298 295 301 302 307 308 308 306 311 309 306 300 298 294 293 302 294 292 298 303 306 310 311 312 315 314 314 315 317 315 317 318 317 316 318 320 321 322
307 305 295 303 301 303 302 301 301 305 307 306 305 306 309 310 303 301 295 300 299 291 289 290 299 302 306 309 311 315 314 312 313 313 315 315 314 315 317 317 319 321 320 322
307 308 296 302 306 307 306 306 305 307 308 305 303 304 310 306 303 302 299 294 289 295 291 299 304 306 309 311 313 316 315 314 316 315 311 309 313 314 315 319 320 321 322 322
311 310 305 306 304 303 305 305 304 308 306 307 306 302 301 301 302 296 294 292 291 297 302 305 307 308 311 312 314 317 319 313 316 315 314 312 312 314 317 318 320 321 322 322
308 306 310 307 305 305 305 306 306 310 304 300 301 297 297 304 297 294 298 295 299 303 305 307 307 307 311 314 314 317 319 319 315 313 319 318 319 319 319 318 321 321 324 324
Wind_Speed
17 18 19 20 21 31 12 7 8 9 3 7 8 13 20 20 22 16 8 13 18 20 20 17 20 20 19 8 13 17 17 10 16 16 11 13 17 17 18 12 14 14 12 3
18 18 18 18 16 16 9 8 11 12 5 9 12 17 22 22 18 12 14 18 15 18 18 21 19 20 16 18 15 12 13 10 15 17 15 17 16 19 18 18 16 17 12 10
17 18 18 17 15 13 9 7 6 6 9 9 14 17 17 20 17 15 12 20 17 17 17 17 20 21 19 16 16 9 6 16 14 15 17 15 20 16 17 17 13 15 16 9
16 16 16 16 17 14 7 6 7 12 9 13 17 18 15 15 17 17 13 14 15 18 17 17 18 18 20 18 9 10 12 18 19 20 23 22 17 18 22 20 20 20 15 18
15 15 14 14 14 19 6 6 10 10 14 18 18 15 16 18 20 20 17 20 15 16 18 17 18 20 18 17 14 15 15 17 18 23 22 22 22 20 16 18 19 21 20 20
17 17 17 15 14 11 6 10 13 10 9 15 14 13 18 18 17 17 17 18 17 16 18 13 13 17 19 15 16 18 18 14 16 20 21 21 25 22 20 20 15 17 17 16
17 17 17 16 12 7 8 9 10 9 12 14 16 18 17 18 17 16 16 16 7 8 15 17 16 16 19 20 16 17 15 12 13 16 18 31 16 20 23 23 21 18 17 13
16 16 16 16 15 8 7 9 8 9 12 14 18 19 16 18 14 13 16 17 14 8 12 13 13 14 17 22 20 18 19 15 12 13 18 19 20 22 22 20 18 19 18 15
16 16 16 16 16 10 6 5 7 6 8 10 15 14 15 13 13 14 14 13 11 14 7 9 16 13 18 17 20 22 22 19 13 14 20 25 15 20 21 18 16 15 15 15
17 17 17 17 16 12 5 4 5 3 6 15 15 12 12 14 13 9 14 12 6 8 6 11 15 17 19 22 22 19 16 15 16 16 19 22 19 22 19 12 9 13 12 10
17 18 17 17 16 13 4 3 3 3 3 16 21 21 14 13 9 9 8 8 5 8 10 10 14 16 17 20 19 20 17 2 14 17 19 25 19 21 15 2 16 16 8 11
17 17 16 15 14 12 7 2 3 1 3 11 20 20 21 18 16 12 11 9 5 3 5 4 7 11 14 17 15 8 9 10 8 9 9 15 14 12 9 6 6 13 9 6
17 17 16 15 12 9 10 2 1 1 3 9 12 12 11 12 17 15 10 10 6 1 3 4 3 6 10 13 12 3 9 9 6 4 13 23 16 8 12 18 7 6 13 2
16 15 15 14 12 9 9 2 0 0 2 4 7 10 12 15 13 15 14 16 7 4 2 5 5 4 10 10 15 15 11 5 3 8 13 18 18 12 7 17 27 7 4 16
15 14 13 12 11 8 5 3 3 2 1 4 9 22 21 13 14 12 10 11 13 6 4 5 7 8 10 11 14 17 14 10 10 8 8 6 10 14 19 8 21 25 7 10
15 14 13 12 11 4 3 4 5 6 3 3 5 10 9 6 9 8 10 9 6 4 5 6 7 17 8 6 12 16 18 11 8 5 6 7 11 12 14 14 16 17 20 8
14 13 13 11 8 6 3 5 4 7 4 2 5 6 1 9 2 2 6 9 4 2 4 6 11 11 6 9 15 18 19 13 1 1 5 9 8 6 9 8 14 17 21 20
14 13 12 10 6 8 7 6 7 7 2 2 4 6 3 7 2 2 4 3 2 3 4 4 7 6 2 7 14 17 17 20 12 9 11 14 14 12 16 3 7 23 21 17
13 12 11 5 5 3 3 9 8 3 2 2 3 3 5 8 5 4 2 1 2 1 3 4 3 5 8 9 14 15 16 13 9 13 13 16 19 19 13 14 17 18 16 15
11 6 5 3 3 15 11 2 3 3 3 3 4 3 5 1 2 2 3 1 2 3 4 3 4 11 18 18 17 14 7 6 12 10 15 13 15 11 15 5 21 27 14 17
5 3 1 5 10 4 3 4 4 4 4 5 6 9 7 5 4 3 3 1 1 3 1 3 2 5 8 11 16 9 9 6 9 12 15 15 14 5 5 4 7 14 16 14
5 6 6 3 3 4 5 5 5 6 4 5 6 4 3 4 2 2 2 3 2 4 3 3 3 3 12 11 13 13 14 13 12 11 6 10 12 8 10 7 8 7 16 15
3 3 3 4 5 4 6 3 0 3 3 6 6 5 4 5 4 3 3 5 5 1 2 2 2 8 9 11 12 15 14 11 8 6 4 4 6 8 10 12 5 8 10 10
3 4 5 6 5 5 7 4 7 7 9 8 8 4 5 3 5 3 5 4 3 2 1 2 2 7 9 9 12 14 10 7 6 2 7 7 10 7 8 8 8 10 9 10
5 5 5 6 6 10 8 4 5 5 7 9 9 6 2 4 4 3 4 3 1 1 2 2 4 8 5 9 13 13 12 9 5 15 16 13 9 5 4 13 11 9 9 9
5 7 9 6 9 4 7 5 5 6 7 8 6 4 4 4 1 1 2 6 2 2 3 5 8 11 7 8 11 12 10 6 8 17 19 8 8 4 7 11 12 11 11 10
6 6 9 9 4 6 6 6 5 7 7 4 4 4 3 4 3 2 2 1 4 4 4 4 5 9 8 9 10 12 10 5 5 5 9 14 10 10 9 11 9 10 7 6
Wind_Direction
337 337 335 336 342 336 336 298 276 122 237 237 236 247 252 263 280 294 264 268 284 288 290 271 263 229 240 269 200 238 215 237 239 256 212 205 257 233 230 242 240 275 275 273
338 338 339 338 342 3 321 296 293 285 166 261 255 253 256 255 268 285 279 271 253 275 274 283 283 276 264 244 202 230 232 218 249 247 231 204 217 239 245 228 242 261 256 252
341 340 339 340 337 344 317 285 297 206 193 241 269 283 290 295 293 240 266 282 288 275 268 269 271 274 276 278 252 104 286 245 230 242 234 237 198 221 246 253 246 227 242 193
335 335 336 340 334 330 301 249 300 347 304 309 329 317 310 298 291 290 279 249 266 279 277 273 272 266 268 269 236 177 227 254 255 257 265 272 274 218 208 226 250 258 251 240
346 343 339 339 337 327 253 297 337 333 303 303 298 285 275 276 282 288 280 281 275 250 276 266 292 282 269 261 250 208 212 245 253 259 262 258 265 263 260 224 218 243 251 265
351 350 347 342 342 339 295 349 332 301 279 287 286 278 283 283 284 279 275 280 291 308 337 335 318 310 307 298 294 299 216 228 239 249 250 263 257 253 256 254 238 225 234 239
344 344 343 344 337 335 303 301 305 292 285 287 283 289 292 288 283 282 310 311 300 289 344 319 308 291 283 273 274 286 283 273 223 251 247 242 258 250 250 252 251 243 247 256
340 338 338 340 336 316 290 305 294 283 278 277 281 279 285 292 293 292 297 286 295 308 309 294 278 266 259 268 269 265 275 274 265 252 244 260 251 242 255 260 257 250 235 245
334 334 336 333 333 328 273 278 301 291 286 245 316 305 295 300 289 279 244 267 275 290 261 281 268 258 273 263 260 271 259 260 259 262 255 252 254 250 267 273 259 256 224 231
333 335 334 336 333 333 243 289 359 291 277 280 282 292 333 323 325 307 322 353 310 282 281 250 249 259 258 256 256 264 269 245 254 245 255 259 262 278 288 298 308 291 231 253
329 333 334 335 336 337 214 280 314 303 284 287 297 314 301 307 329 319 324 315 252 264 255 253 257 262 254 258 259 259 242 251 273 236 255 248 246 257 266 86 351 327 264 251
326 328 332 335 333 341 193 271 277 299 244 291 310 294 297 294 299 292 296 278 289 322 304 303 303 272 276 270 260 250 261 269 271 243 250 321 318 353 314 113 327 324 327 337
320 327 331 335 330 334 198 254 335 70 282 281 259 270 275 275 258 264 257 274 297 336 319 312 282 274 296 286 291 72 306 340 210 283 239 261 307 354 321 303 196 316 318 287
315 324 328 330 328 326 203 225 106 86 299 288 300 320 312 308 289 270 260 268 255 175 68 284 268 258 282 283 303 301 303 120 263 268 275 281 279 284 248 351 325 222 241 309
313 318 319 322 322 329 220 229 227 187 249 296 301 297 275 252 248 263 262 288 269 277 228 237 257 274 285 268 270 267 279 272 198 226 298 278 293 348 334 332 293 314 252 253
309 310 309 308 304 295 248 236 185 198 169 289 299 329 302 280 242 278 238 256 277 266 308 260 252 249 273 269 265 284 297 286 5 119 180 303 319 338 309 321 317 320 296 147
301 302 300 297 279 248 254 349 39 145 144 264 288 277 271 14 303 212 244 238 223 234 244 243 254 262 212 258 267 277 280 277 81 203 286 282 254 284 308 331 328 333 280 142
297 298 300 295 252 265 260 165 159 167 176 233 277 278 302 0 312 316 6 333 311 228 258 268 255 261 218 250 257 265 274 283 256 254 264 262 266 235 248 192 35 351 232 101
294 296 298 232 227 230 102 125 143 215 281 277 244 283 305 354 12 335 326 81 257 326 269 249 240 223 230 246 250 261 255 276 177 215 256 263 258 258 231 190 158 206 230 136
292 262 207 228 85 119 139 154 187 190 202 220 257 228 251 198 287 300 323 216 242 259 236 273 231 257 259 259 266 268 258 301 286 277 270 270 285 296 291 125 191 207 157 165
196 238 348 87 158 207 205 218 210 166 224 213 232 237 236 179 211 248 198 226 227 259 284 264 268 289 300 331 301 281 297 252 274 285 282 277 286 60 15 353 88 189 161 146
333 297 272 243 212 229 241 222 185 204 242 188 237 247 211 122 146 236 195 259 184 258 138 253 259 339 340 350 346 329 324 296 282 271 348 5 324 80 102 66 358 139 103 128
220 243 234 211 202 239 237 241 33 268 219 221 248 251 155 148 183 204 239 227 224 101 234 250 337 326 327 330 334 319 302 264 271 339 9 21 89 87 118 116 254 102 105 122
238 237 237 232 211 236 235 294 333 345 335 330 308 245 184 172 186 210 253 209 165 217 267 275 283 304 308 327 303 313 301 65 273 254 357 309 140 134 161 173 176 133 142 149
253 251 248 234 257 277 326 350 316 355 340 327 306 302 145 201 236 189 283 160 278 93 218 280 316 308 320 326 317 322 315 180 159 99 79 58 100 95 158 135 137 134 143 154
241 237 250 287 270 275 277 348 347 357 336 7 303 325 290 233 254 61 301 334 355 48 25 7 346 334 328 333 338 330 331 71 85 107 104 147 109 222 113 115 135 149 151 163
226 241 250 258 302 341 298 337 18 344 316 323 326 287 308 302 40 32 260 53 7 29 53 30 351 336 346 0 1 1 351 57 106 108 123 144 148 134 125 132 143 140 137 157